Bangor, ME

10:42 AM EDT on June 27, 2017 (GMT -0400)
Bangor International

Weather History for KBGR - February, 2013

Change the Weather History Date:

Tuesday, February 12, 2013

  Actual Average Record
Temperature  
Mean Temperature 36 °F 20 °F  
Max Temperature 40 °F 31 °F 55 °F (1981)
Min Temperature 32 °F 9 °F -17 °F (1967)
Degree Days  
Heating Degree Days 29 45  
Month to date heating degree days 580 555  
Since 1 July heating degree days 4796 4962  
Cooling Degree Days 0 0  
Month to date cooling degree days 0 0  
Year to date cooling degree days 0 0  
Moisture  
Dew Point 30 °F    
Average Humidity 82    
Maximum Humidity 100    
Minimum Humidity 64    
Precipitation  
Precipitation 0.05 in 0.09 in 0.90 in (1952)
Month to date precipitation 0.65 1.05  
Year to date precipitation 1.52 3.94  
Snow  
Snow T in 0.50 in 14.00 in (1944)
Month to date snowfall 22.7 6.4  
Since 1 July snowfall 48.3 42.4  
Snow Depth 20.00 in    
Sea Level Pressure  
Sea Level Pressure 29.54 in    
Wind  
Wind Speed 4 mph (West)    
Max Wind Speed 13 mph    
Max Gust Speed 18 mph    
Visibility 8 miles    
Events Fog , Rain , Snow    
T = Trace of Precipitation, MM = Missing Value Source: NWS Daily Summary

Daily Weather History Graph

Daily Weather History Graph

Search for Another Location

Airport or City:

Trip Planner

Search our weather history database for the weather conditions in past years. The results will help you decide how hot, cold, wet, or windy it might be!

Date:

Astronomy

Feb. 12, 2013 Rise Set
Actual Time 6:39 AM EST 4:59 PM EST
Civil Twilight 6:09 AM EST 5:30 PM EST
Nautical Twilight 5:35 AM EST 6:04 PM EST
Astronomical Twilight 5:01 AM EST 6:38 PM EST
Moon 7:26 AM EST (2/12) 8:07 PM EST (2/12)
Length of Visible Light 11h 20m
Length of Day
10h 19m
Waxing Crescent, 7% of the Moon is Illuminated
Feb 12
Waxing Crescent
Feb 17
First Quarter
Feb 25
Full
Mar 4
Last Quarter
Mar 11
New

Hourly Weather History & Observations

Time (EST) Temp. Windchill Dew Point Humidity Pressure Visibility Wind Dir Wind Speed Gust Speed Precip Events Conditions
12:14 AM 33.8 °F - 33.8 °F 100% 29.54 in 0.5 mi Calm Calm - N/A Fog Fog
12:53 AM 33.1 °F - 32.0 °F 96% 29.53 in 0.8 mi Calm Calm - N/A   Overcast
1:39 AM 32.0 °F 27.5 °F 32.0 °F 100% 29.51 in 1.0 mi West 4.6 mph - N/A   Overcast
1:53 AM 32.0 °F 28.7 °F 32.0 °F 100% 29.52 in 2.0 mi West 3.5 mph - N/A   Overcast
2:53 AM 32.0 °F 28.7 °F 32.0 °F 100% 29.49 in 6.0 mi SW 3.5 mph - 0.00 in Rain Light Rain
3:16 AM 32.0 °F 26.4 °F 32.0 °F 100% 29.49 in 2.5 mi SW 5.8 mph - 0.00 in Rain Light Rain
3:25 AM 32.0 °F 28.7 °F 32.0 °F 100% 29.48 in 5.0 mi SSW 3.5 mph - 0.00 in Rain Light Rain
3:38 AM 32.0 °F 26.4 °F 30.2 °F 93% 29.49 in 7.0 mi WSW 5.8 mph - 0.00 in Rain Light Rain
3:46 AM 32.0 °F 27.5 °F 30.2 °F 93% 29.49 in 6.0 mi West 4.6 mph - 0.01 in Rain Light Rain
3:53 AM 32.0 °F 26.4 °F 30.9 °F 96% 29.50 in 5.0 mi West 5.8 mph - 0.01 in Rain Light Rain
4:08 AM 32.0 °F 27.5 °F 30.2 °F 93% 29.49 in 6.0 mi Variable 4.6 mph - 0.02 in Rain Light Rain
4:34 AM 32.0 °F 28.7 °F 30.2 °F 93% 29.49 in 6.0 mi West 3.5 mph - 0.03 in Rain , Snow Light Rain
4:53 AM 32.0 °F 28.7 °F 32.0 °F 100% 29.49 in 5.0 mi West 3.5 mph - 0.04 in Rain , Snow Light Rain
5:21 AM 32.0 °F 28.7 °F 32.0 °F 100% 29.49 in 9.0 mi West 3.5 mph - 0.00 in Snow Light Snow
5:53 AM 32.0 °F 28.7 °F 32.0 °F 100% 29.49 in 9.0 mi West 3.5 mph - 0.00 in   Overcast
6:53 AM 33.1 °F - 30.9 °F 92% 29.49 in 10.0 mi Calm Calm - N/A   Mostly Cloudy
7:53 AM 32.0 °F - 30.9 °F 96% 29.51 in 10.0 mi Calm Calm - N/A   Mostly Cloudy
8:53 AM 34.0 °F 29.8 °F 30.9 °F 89% 29.52 in 10.0 mi WSW 4.6 mph - N/A   Mostly Cloudy
9:53 AM 34.0 °F 29.8 °F 30.9 °F 89% 29.52 in 10.0 mi WSW 4.6 mph - N/A   Mostly Cloudy
10:53 AM 35.1 °F 28.6 °F 28.9 °F 78% 29.52 in 10.0 mi West 8.1 mph - N/A   Overcast
11:53 AM 37.0 °F 31.0 °F 30.0 °F 76% 29.52 in 10.0 mi WSW 8.1 mph - N/A   Mostly Cloudy
12:53 PM 37.0 °F 29.8 °F 30.0 °F 76% 29.52 in 10.0 mi West 10.4 mph - N/A   Overcast
1:53 PM 39.0 °F 32.8 °F 30.0 °F 70% 29.53 in 10.0 mi West 9.2 mph - N/A   Mostly Cloudy
2:53 PM 39.0 °F 33.4 °F 30.0 °F 70% 29.54 in 10.0 mi West 8.1 mph - N/A   Mostly Cloudy
3:53 PM 39.0 °F 32.3 °F 28.9 °F 67% 29.55 in 10.0 mi West 10.4 mph - N/A   Mostly Cloudy
4:53 PM 39.0 °F 33.4 °F 28.9 °F 67% 29.56 in 10.0 mi WNW 8.1 mph - N/A   Mostly Cloudy
5:53 PM 37.9 °F 31.5 °F 28.0 °F 68% 29.58 in 10.0 mi WNW 9.2 mph - N/A   Mostly Cloudy
6:53 PM 37.9 °F 30.9 °F 28.0 °F 68% 29.61 in 10.0 mi West 10.4 mph - N/A   Overcast
7:53 PM 37.0 °F 31.6 °F 28.0 °F 70% 29.63 in 10.0 mi West 6.9 mph - N/A   Overcast
8:53 PM 37.0 °F 31.0 °F 28.0 °F 70% 29.65 in 10.0 mi West 8.1 mph - N/A   Overcast
9:53 PM 37.0 °F 31.0 °F 27.0 °F 67% 29.68 in 10.0 mi West 8.1 mph - N/A   Overcast
10:53 PM 37.0 °F 29.8 °F 26.1 °F 65% 29.70 in 10.0 mi WNW 10.4 mph - N/A   Overcast
11:53 PM 36.0 °F 32.1 °F 27.0 °F 70% 29.71 in 10.0 mi SW 4.6 mph - N/A   Overcast